STARLINK-32404, 61710

Orbit data source: Space-Track

STARLINK-32404, 61710 is a payload satellite owned by SpaceX/Seattle (US) in LEO that was launched on Wed, 30 Oct 2024 UTC via an FALCON 9 launch vehicle from the Air Force Eastern Test Range (AFETR). Payload-class satellites include a variety of spacecraft equipped with specific instruments for various scientific and technological missions. These include communications satellites like Starlink; space stations such as the ISS; scientific satellites like the Hubble; Earth observation satellites from companies like Planet Labs, Umbra, and HawkEye 360; GPS; miniature CubeSats for education and research; and military/defense satellites.

Loading next visibility...
Identifier
61710, 2024-196D
Orbit
LEO
Last TLE update
2 days ago
Origin
Manufacturer
SpaceX/Seattle
Mission
Operational Commercial Communications
Bus & Motor
STARLINK V2M, Unknown motor
Mass
730 kg wet, ~700 kg dry
Launch date (UTC)
2024-10-30 (6 months ago)
Launch vehicle
FALCON 9
Launch site
Air Force Eastern Test Range (AFETR)
Object type
Payload
Rocket body
Debris
Shape & HBR
Box + 2 Pan, 29 m
Radar Cross Section
36.964 m², Large (>1 m²)

Expand to show TLE details & history

TLE from 2 days ago
0 STARLINK-32404
1 61710U 24196D   25118.28472555 -.00001010  00000-0 -21979-4 0  9998
2 61710  53.1594 126.5788 0001082  94.4782 265.6343 15.30183418 28863
Epoch: 2025-04-28T06:50Z
Definitive object data (Epoch: 2025-04-28T06:50:00.287Z)
Latitude
0.00003°
Longitude
167.57668°
Altitude
476.221 km
Speed
7.629 km/s
True Right ascension
08h 26m 18s
True Declination
0° 00' 00"
Sunlit
Object was in daylight at TLE epoch
Visualization TLE readout
Latitude
7.55213°
Longitude
-26.12597°
Altitude
475.261 km
Speed
7.63 km/s
Apparent Right ascension
19h 40m 12s
Apparent Declination
-15° 12' 32"
Sunlit
Object is in daylight
Visualization observer readout
Local Sidereal Time
07:52:15
Azimuth
6.94° NNE
Elevation
-65.153°
Doppler factor
1
Orbital elements
Apogee altitude
476.263 km
Perigee altitude
474.78 km
Semi-major axis
6,853.658 km
Eccentricity
0.0001082
Inclination
53.1594°
RAAN
126.5788°
Arg. of periapsis
94.4782°
True anomaly
265.62194°
Mean anomaly
265.6343°
Eccentric anomaly
265.62812°
Mean motion
3.82525 °/min
BSTAR
-0.000021979
Orbital period
94.11 mins
Loading maneuver chart data...
Loading SW <> Apogee altitude chart data...
Loading historical data...
Loading historical data...
Loading historical data...
Loading historical data...
Loading historical data...
Loading historical data...
Loading historical data...

STARLINK-32404 Visibility forecast

Observer location: undefined°, undefined°

Span
Click to sort rows by Start time (UTC) header in descending order
Start Az.
Max El. time (UTC)
Max El. Az.
Max El.
End time (UTC)
End Az.
6 mins2025-04-30 02:54:55.085Z231.978° WSW2025-04-30 02:57:55.085Z34.849° NE43.027°2025-04-30 03:00:55.085Z48.82° ENE
4 mins2025-04-30 07:51:55.085Z340.434° N2025-04-30 07:53:55.085Z15.104° NNE16.481°2025-04-30 07:55:55.085Z53.764° ENE
5 mins2025-04-30 09:30:55.085Z315.607° NNW2025-04-30 09:32:55.085Z99.735° ESE43.354°2025-04-30 09:35:55.085Z126.922° SE
|